CW7485 Weather Reports


Display with metric or nautical units.
time (UTC)temp
F
wind
direction
speed
MPH
gust
MPH
rain 1hr
in
rain 24hr
in
rain mn
in
humidity
%
barometer
mb
20260504034534 50 0 0.0 0.0 0.00 0.11 0.11 75 1005.4
20260504033029 50 0 0.0 1.0 0.00 0.11 0.11 74 1005.4
20260504031530 51 0 0.0 0.0 0.00 0.11 0.11 71 1005.4
20260504030030 52 0 0.0 0.0 0.00 0.11 0.11 69 1005.4
20260504024530 54 0 0.0 0.0 0.00 0.11 0.11 71 1005.2
20260504023031 56 0 0.0 0.0 0.00 0.11 0.11 59 1005.2
20260504021534 58 0 0.0 0.0 0.00 0.11 0.11 55 1005.1
20260504020037 60 0 0.0 0.0 0.00 0.11 0.11 48 1004.9
20260504014536 61 0 0.0 0.0 0.00 0.11 0.11 45 1004.8
20260504013031 64 0 0.0 0.0 0.00 0.11 0.11 42 1004.6
20260504011533 66 0 0.0 1.0 0.00 0.11 0.11 39 1004.5
20260504010030 68 259 0.0 3.0 0.00 0.11 0.11 38 1004.4
20260504004534 69 225 1.0 3.0 0.00 0.11 0.11 37 1004.3
20260504003032 71 239 1.0 6.0 0.00 0.11 0.11 36 1004.0
20260504001535 71 264 4.0 8.0 0.00 0.11 0.11 34 1003.9
20260504000029 72 257 3.0 8.0 0.00 0.11 0.11 37 1003.8
20260503234530 73 243 4.0 9.0 0.00 0.11 0.11 36 1003.8
20260503233030 74 240 3.0 9.0 0.00 0.11 0.11 36 1003.8
20260503231532 74 270 4.0 9.0 0.00 0.11 0.11 36 1003.7
20260503230032 74 253 4.0 11.0 0.00 0.11 0.11 36 1003.8
20260503224529 74 281 3.0 10.0 0.00 0.11 0.11 38 1003.7
20260503223031 74 266 4.0 10.0 0.00 0.11 0.11 37 1003.7
20260503221533 73 243 4.0 14.0 0.00 0.11 0.11 37 1003.7
20260503220029 73 227 3.0 11.0 0.00 0.11 0.11 39 1003.9
20260503214540 72 267 2.0 9.0 0.00 0.11 0.11 44 1003.9
20260503213031 73 221 6.0 12.0 0.00 0.11 0.11 42 1004.0
20260503211534 72 264 6.0 14.0 0.00 0.11 0.11 43 1004.0
20260503210033 71 276 5.0 13.0 0.00 0.11 0.11 43 1004.3
20260503204534 71 278 6.0 15.0 0.00 0.11 0.11 45 1004.5
20260503203036 70 273 5.0 12.0 0.00 0.11 0.11 44 1004.9
20260503201532 70 217 4.0 10.0 0.00 0.11 0.11 44 1005.1
20260503200037 69 201 4.0 13.0 0.00 0.11 0.11 45 1005.3
20260503194532 69 158 4.0 13.0 0.00 0.11 0.11 48 1005.6
20260503193036 68 281 4.0 11.0 0.00 0.11 0.11 46 1005.7
20260503191531 67 236 7.0 17.0 0.00 0.11 0.11 49 1006.0
20260503190032 66 217 8.0 18.0 0.00 0.11 0.11 47 1006.1
20260503184540 65 236 7.0 18.0 0.00 0.11 0.11 49 1006.3
20260503183035 65 224 6.0 15.0 0.00 0.11 0.11 48 1006.5
20260503181530 65 188 5.0 13.0 0.00 0.11 0.11 50 1006.6
20260503180044 64 253 6.0 15.0 0.00 0.11 0.11 51 1006.7
20260503174543 64 293 7.0 15.0 0.00 0.11 0.11 52 1007.0
20260503173040 63 260 6.0 20.0 0.00 0.11 0.11 51 1007.0
20260503171529 62 255 9.0 22.0 0.00 0.11 0.11 51 1007.3
20260503081538 49 233 4.0 9.0 0.00 0.00 0.00 56 1012.5
20260503071528 49 198 3.0 7.0 0.00 0.00 0.00 55 1012.9
20260503054531 48 232 2.0 5.0 0.00 0.00 0.00 57 1013.4
20260503053028 48 245 2.0 5.0 0.00 0.00 0.00 57 1013.6
20260503051536 48 235 0.0 3.0 0.00 0.00 0.00 57 1013.7
20260503050030 48 217 1.0 4.0 0.00 0.00 0.00 56 1013.9
20260503044532 48 218 2.0 4.0 0.00 0.00 0.00 56 1013.8
20260503043029 48 221 1.0 4.0 0.00 0.00 0.00 56 1013.9
20260503041527 48 207 2.0 4.0 0.00 0.00 0.00 56 1014.1
20260503040028 49 214 1.0 4.0 0.00 0.00 0.00 55 1014.2